Regional Weather Roundup
Issued by NWS State College, PA

Home | Current Version | Previous Version | Text Only | Print | Product List | Glossary Off
Versions: 1 2 3 4 5 6 7 8 9 10 11 12 13 14 15 16 17 18 19 20 21 22 23 24 25 26 27 28 29 30 31 32 33 34 35 36 37 38 39 40 41 42 43 44 45 46 47 48 49 50

000
ASUS41 KCTP 301003
RWRCTP

REGIONAL WEATHER ROUNDUP
NATIONAL WEATHER SERVICE STATE COLLEGE PA
600 AM EDT THU OCT 30 2014

Note: "fair" indicates few or no clouds below 12,000 feet with no
significant weather and/or obstructions to visibility.

* = STATION THAT DOES NOT REPORT PRECIPITATION /E.G. RAIN...SNOW...ETC/
    THUNDER OR FOG.

PAZ002>004-007>009-013>016-020>023-029>032-301100-
WESTERN PENNSYLVANIA

CITY           SKY/WX    TMP DP  RH WIND       PRES   REMARKS
ERIE           MOCLDY    47  35  63 NW7       30.06R
MEADVILLE      CLOUDY    42  39  89 W3        30.05R
FRANKLIN*      CLOUDY    41  36  81 W6        30.05R
NEW CASTLE       N/A     43  39  85 CALM      30.08R
BEAVER COUNTY  NOT AVBL
BUTLER*        CLOUDY    43  36  75 W3        30.07R
PITTSBURGH INT PTCLDY    37  33  85 CALM      30.06R
PITTSBURGH     CLEAR     39  32  76 W9        30.06R
INDIANA*       CLOUDY    41  36  81 CALM      30.08R
LATROBE        CLOUDY    41  36  81 SW6       30.08R
WASHINGTON CO* CLEAR     34  30  86 CALM      30.09R
$$

PAZ004>006-010>012-017>019-024>028-033>037-041-042-045-046-049>053-301100-
CENTRAL PENNSYLVANIA

CITY           SKY/WX    TMP DP  RH WIND       PRES   REMARKS
BRADFORD       CLOUDY    40  37  89 W7        30.00R
DUBOIS         CLOUDY    41  37  86 W5        30.01R
CLEARFIELD     CLOUDY    44  37  76 NW9       30.02R
JOHNSTOWN      CLOUDY    40  33  76 W7        30.01R
ALTOONA        CLOUDY    44  36  73 W8        30.03R
STATE COLLEGE  CLOUDY    43  37  79 W6        30.01R
WILLIAMSPORT   CLOUDY    44  38  79 CALM      30.00R
SELINSGROVE    PTCLDY    36  34  92 CALM      30.01R
FT INDIANTOWN  CLEAR     45  45 100 W9        30.00R
CAPITAL CITY   CLEAR     42  38  85 W5        30.02R
HARRISBURG     PTCLDY    43  40  89 NW8       30.01R
YORK           CLOUDY    42  41  96 CALM      30.01R
$$

PAZ038>040-043-044-047-048-054-055-060>062-067>071-301100-
EASTERN PENNSYLVANIA

CITY           SKY/WX    TMP DP  RH WIND       PRES   REMARKS
SCRANTON       CLOUDY    42  38  85 CALM      29.97R
MOUNT POCONO   PTCLDY    33  32  96 NW5       29.95R
ALLENTOWN      FOG       38  37  97 W3        29.98R VSB 1/4
QUAKERTOWN*    SUNNY     36  36 100 CALM      29.99R
READING        FOG       45  43  93 CALM      29.99R VSB 1/2
LANCASTER      FOG       42  42 100 W6        30.00R VSB 1/2
COATESVILLE    FOG       43  43 100 NW6       29.99S VSB<1/4
POTTSTOWN      FOG       39  38  96 CALM      30.00R VSB 1/4
BLUE BELL      CLOUDY    43  43 100 CALM      29.98R VSB 1/4
DOYLESTOWN     FOG       42  42 100 CALM      29.97R VSB 1/2
WILLOW GROVE   NOT AVBL
NORTH PHILA    CLEAR     46  42  86 CALM      30.00R FOG
PHILADELPHIA   PTCLDY    47  42  83 SW6       29.99R
$$



USA.gov is the U.S. government's official web portal to all federal, state and local government web resources and services.